This is the latest recevied weather packets stored in our database for station/object DO7ZT-10. If no packets are shown the sender has not sent any weather packets the latest 10 day(s).
| Time | Temp. | Humidity | Pressure | Rain* | Wind** | Luminosity | Snow |
|---|---|---|---|---|---|---|---|
| 1787433367 | 14.44° C | 74% | 1020.2 hPa | - | - | - | - |
| 1787432468 | 14.44° C | 74% | 1020.1 hPa | - | - | - | - |
| 1787431567 | 14.44° C | 76% | 1020 hPa | - | - | - | - |
| 1787430666 | 14.44° C | 73% | 1019.8 hPa | - | - | - | - |
| 1787429768 | 14.44° C | 73% | 1019.8 hPa | - | - | - | - |
| 1787428866 | 14.44° C | 72% | 1019.6 hPa | - | - | - | - |
| 1787427966 | 14.44° C | 73% | 1019.5 hPa | - | - | - | - |
| 1787427066 | 14.44° C | 73% | 1019.5 hPa | - | - | - | - |
| 1787426166 | 14.44° C | 75% | 1019.4 hPa | - | - | - | - |
| 1787425266 | 14.44° C | 75% | 1019.3 hPa | - | - | - | - |
| 1787424366 | 15° C | 74% | 1019.1 hPa | - | - | - | - |
| 1787423466 | 15° C | 73% | 1018.8 hPa | - | - | - | - |
| 1787422566 | 15° C | 74% | 1018.7 hPa | - | - | - | - |
| 1787421666 | 15.56° C | 74% | 1018.5 hPa | - | - | - | - |
| 1787420766 | 15.56° C | 73% | 1018.4 hPa | - | - | - | - |
| 1787419866 | 15.56° C | 72% | 1018.3 hPa | - | - | - | - |
| 1787418966 | 15.56° C | 72% | 1018.1 hPa | - | - | - | - |
| 1787418065 | 16.11° C | 69% | 1018 hPa | - | - | - | - |
| 1787417165 | 16.67° C | 67% | 1017.9 hPa | - | - | - | - |
| 1787416265 | 16.11° C | 66% | 1018.1 hPa | - | - | - | - |
| 1787415365 | 16.67° C | 67% | 1017.9 hPa | - | - | - | - |
| 1787414465 | 17.22° C | 66% | 1017.9 hPa | - | - | - | - |
| 1787413565 | 17.22° C | 64% | 1017.8 hPa | - | - | - | - |
| 1787412664 | 16.67° C | 68% | 1017.7 hPa | - | - | - | - |
| 1787411764 | 16.67° C | 65% | 1017.6 hPa | - | - | - | - |
* Rain since midnight (hover to see other rain measurements)
** Current wind speed in m/s (hover to see current wind gust speed)